Location: El Carrer d�Abaix
(41.5797°N, 2.1791°E)
Time: 20:04:37
(UTC+00:00)

Cosmos 2082 Rocket - Pass Details

Date: 10 October 2020
Orbit: 834 x 853 km, 71.0° (Epoch: 27 October)

Event Time Altitude Azimuth Distance (km) Brightness Sun altitude
Rises 18:49:22 0° 323° (NW) 3,396 6.0 -18.0°
Reaches altitude 10° 18:52:15 10° 309° (NW) 2,460 5.5 -18.5°
Maximum altitude 18:56:35 23° 259° (WSW) 1,703 4.6 -19.3°
Drops below altitude 10° 19:00:56 10° 208° (SSW) 2,457 4.8 -20.1°
Sets 19:03:50 0° 194° (SSW) 3,390 5.4 -20.6°
